Погода в Джиджихабле

Россия / Республика Адыгея     44°56′51″N   39°24′24″E
темп.,
°C
ветер,
м/с
пор.,
м/с
влажн.,
%
обл.,
%
осадки,
мм/ч
давл.,
гПа
погр.,
м
20 мая, пт
пт2000:00+10юз9157384 0.0 1019720
03:00+10юз81392100 2.0 1019655
06:00+11юз81389100 0.2 1020554
09:00+15зюз7977100 1.0 1021993
12:00+16зюз896734 1.3 10211385
15:00+16зюз8107524 2.7 10201010
18:00+15зюз811751 1.4 1020435
21:00+12юз71485100 1.6 1021333
21 мая, сб
сб2100:00+13юз7147879 0.0 1020367
03:00+13юз91574100 0.0 1020494
06:00+14юз101675100 0.0 1019604
09:00+15юз10167394 0.1 1019916
12:00+19зюз11145985 0.0 10181356
15:00+19зюз10146079 0.0 10171252
18:00+16зюз91663100 0.0 1016782
21:00+15юз81759100 0.0 1015625
22 мая, вс
вс2200:00+14зюз81661100 0.0 1013550
03:00+15зюз716595 0.0 1011557
06:00+14зюз614675 0.0 1010456
09:00+19зюз8146128 0.0 1008807
12:00+22зюз913480 0.0 10061205
15:00+22зюз813515 0.0 10051446
18:00+18зюз7116297 0.0 1005598
21:00+15зюз3776100 0.0 1005189
23 мая, пн
пн2300:00+14зюз4874100 0.0 1005190
03:00+13зюз487899 0.0 1005172
06:00+13з4885100 0.0 1006277
09:00+17з57635 0.0 10061115
12:00+19з695344 0.1 10051682
15:00+19зсз575958 0.8 10051371
18:00+16сз577437 0.8 1005685
21:00+13зсз377594 0.9 1007213
24 мая, вт
вт2400:00+12з347968 0.0 1008113
03:00+11зсз368094 0.0 1008207
06:00+10зсз358811 0.0 1010208
09:00+14зсз447372 0.1 1011899
12:00+14с667281 0.4 10121056
15:00+15ссв456295 0.4 10141354
18:00+12с3682100 0.5 1016254
21:00+12ссв117999 0.8 101815